GFSCGP_con_3kmhel_003.txt.gz
Helicity
106 185 154 117 114 118 134 139 107 84 138 351 181 181 119 176 188 182 198 210 193 222 233 249 268 339 377 363 370 359 326 294 297 264 216 193 166 144 128 98 74 91 98 97
197 137 68 81 107 108 101 127 113 83 130 216 152 154 121 196 284 338 336 281 255 252 296 295 372 409 402 341 309 320 342 332 273 232 189 166 151 132 107 82 77 83 71 53
181 105 163 106 113 142 110 148 139 118 142 182 161 128 140 143 207 251 278 322 326 340 365 399 466 480 386 321 269 288 311 293 248 202 188 176 171 148 123 110 94 75 48 29
162 99 115 207 179 159 153 178 148 128 192 162 192 94 184 110 66 125 201 338 345 317 323 439 515 515 411 278 226 245 295 258 202 184 190 184 164 136 110 103 83 63 56 63
181 201 207 222 191 162 178 183 188 191 211 208 284 219 76 51 119 81 120 225 307 359 368 439 511 533 406 282 264 255 260 246 221 202 202 183 148 118 104 88 81 73 76 100
162 196 242 207 215 190 225 296 249 258 269 276 297 236 15 179 118 104 114 197 219 283 284 364 441 497 399 272 251 260 272 223 239 249 223 180 137 113 112 85 75 78 110 123
197 165 285 278 280 305 315 406 289 294 394 318 216 196 213 114 68 81 107 70 194 235 303 401 411 416 392 317 248 251 257 224 269 253 218 176 149 128 102 90 94 113 127 121
174 216 338 367 379 398 412 424 397 267 297 191 191 289 265 108 49 107 87 119 225 327 302 342 384 409 364 312 279 271 266 245 255 244 206 182 156 132 110 102 121 129 137 126
197 209 203 280 386 364 357 417 366 320 280 247 263 290 270 224 202 186 206 305 256 244 309 286 326 372 359 333 318 321 303 253 236 239 225 194 150 134 123 108 128 137 133 145
195 135 111 152 279 304 333 286 444 449 376 372 333 331 311 158 142 247 298 273 268 242 257 232 254 262 306 337 329 315 311 258 221 227 215 184 167 152 141 131 122 129 120 137
253 270 148 139 305 415 449 383 480 412 489 395 299 246 151 152 154 213 234 271 289 234 244 224 228 229 295 318 335 336 309 275 253 240 219 211 201 174 141 131 131 120 125 131
61 194 233 162 259 245 243 307 426 557 475 366 283 261 280 204 193 164 162 195 197 218 287 261 257 264 289 317 337 341 314 303 250 239 246 235 234 179 150 135 122 117 121 132
-9 136 322 258 312 368 354 246 284 255 341 287 328 300 189 153 150 187 221 268 290 254 245 226 288 286 274 315 370 356 338 318 299 303 295 283 231 193 158 140 118 108 130 135
20 167 256 334 239 285 420 371 272 323 341 309 341 279 348 343 272 281 266 316 246 194 215 270 280 299 310 330 374 374 383 358 349 329 322 288 229 194 159 130 120 125 126 139
-118 -143 89 162 208 402 412 171 232 297 311 381 233 268 261 272 260 257 286 250 275 297 329 294 314 328 359 344 347 393 382 369 353 330 327 264 208 181 146 139 130 126 136 146
-66 -84 16 60 98 141 373 421 608 205 198 278 254 189 293 200 207 186 204 266 373 368 324 285 299 346 368 335 354 393 391 367 329 325 290 243 211 175 148 136 127 137 133 147
-43 -112 -115 -338 -248 -30 87 150 231 301 124 193 259 236 279 188 171 157 169 179 241 289 262 303 307 369 369 338 381 395 385 360 353 353 299 254 214 185 148 131 138 145 156 159
123 87 -10 -132 -167 -368 -226 -264 41 225 140 146 85 130 222 243 230 251 224 200 153 171 283 304 306 337 336 365 364 413 400 376 377 346 295 254 218 179 158 155 162 157 161 151
162 110 93 12 -119 -101 -17 -68 -0 8 129 206 81 76 213 225 269 203 229 217 193 206 235 250 294 359 352 355 352 392 405 401 384 340 305 251 205 177 182 165 141 142 173 156
87 100 129 84 68 7 15 -4 -0 27 55 131 492 750 512 366 165 56 167 237 318 321 302 302 268 325 345 368 389 424 436 439 378 339 267 203 174 185 171 135 133 158 169 161
10 67 94 82 85 71 15 49 -67 -81 73 270 473 551 709 407 172 15 105 226 368 359 314 294 272 276 299 340 392 405 405 344 293 260 200 166 168 163 141 129 154 155 153 149
72 37 49 44 119 99 131 -12 -15 -101 -126 -228 -48 375 622 521 316 84 150 309 327 296 259 237 248 241 259 316 352 333 294 231 220 187 155 143 145 141 138 140 129 134 148 157
103 120 73 27 53 56 -2 -40 2 -132 -204 -183 -265 13 436 349 330 135 216 289 238 241 167 158 198 217 242 262 265 263 180 198 175 155 137 141 134 122 126 142 127 143 138 163
122 61 88 83 31 19 -24 -37 18 -59 -14 -41 -105 -154 76 215 324 78 90 198 219 167 127 120 178 204 204 207 215 193 179 171 179 155 138 135 132 124 125 130 136 150 151 169
75 80 108 81 49 -6 -39 -43 -27 -77 -44 -34 -43 -36 -25 21 190 168 36 91 144 139 131 108 155 165 167 170 184 203 185 196 171 144 139 135 130 131 130 133 128 134 130 174
202 209 226 120 51 56 21 44 19 21 -18 41 43 -43 -26 14 49 235 222 94 149 114 144 162 149 146 151 162 177 197 187 180 156 138 134 126 135 133 146 152 120 82 120 103

GFSCGP_con_3kmhel_006.txt.gz
Helicity
168 219 193 203 194 225 145 151 137 125 109 132 131 168 122 139 170 149 170 209 237 216 189 242 255 325 369 388 380 360 363 342 394 371 304 257 218 186 154 127 110 96 94 97
223 164 92 131 142 145 143 138 106 78 96 146 113 129 140 184 216 237 227 263 252 227 208 250 289 343 414 438 416 396 374 390 359 329 265 240 218 178 159 142 112 87 94 101
223 142 120 189 168 185 149 152 168 125 133 173 177 121 201 199 178 198 216 264 312 343 310 318 315 370 473 493 484 445 402 381 333 291 305 274 240 204 181 158 121 101 110 115
147 93 82 202 207 196 157 166 140 141 196 166 172 85 181 157 131 212 138 141 285 371 342 347 342 378 511 509 454 397 389 380 337 310 273 230 190 190 161 148 127 122 125 122
130 108 110 125 159 210 216 146 151 183 197 223 248 262 117 147 155 54 94 135 223 326 367 410 408 437 536 547 423 356 360 371 348 288 236 213 200 171 168 149 126 126 121 109
135 160 180 150 136 170 199 236 299 288 294 262 273 315 108 273 241 159 103 82 180 191 303 314 332 379 447 497 406 367 348 329 310 269 223 218 191 167 166 131 131 116 117 107
139 144 245 217 179 228 278 366 296 306 422 341 217 247 322 190 173 173 96 51 81 155 191 258 349 329 404 468 405 351 342 325 305 264 233 220 177 169 139 127 127 127 126 122
154 89 147 141 256 331 363 402 468 357 281 222 225 319 373 169 93 82 153 27 72 112 164 237 323 329 402 408 414 367 336 315 310 280 246 221 190 168 138 129 130 127 131 115
185 159 109 139 122 260 264 373 316 274 216 246 256 262 171 222 251 199 138 112 75 152 205 246 289 375 366 377 382 371 365 316 314 285 265 234 192 171 142 117 129 130 119 110
238 201 87 206 187 240 252 218 314 405 370 298 249 212 234 187 95 121 142 141 114 196 203 219 323 352 294 306 341 356 351 341 315 306 275 221 194 170 144 154 145 129 109 110
101 264 189 171 240 220 327 307 348 303 338 319 238 166 185 116 143 119 115 140 151 250 263 286 300 293 295 317 329 317 342 328 337 311 253 226 194 166 176 173 144 130 126 115
96 159 333 226 122 127 157 216 219 320 330 382 284 214 327 176 150 126 112 104 146 215 242 283 285 365 346 293 319 290 349 339 323 285 250 215 200 190 197 178 145 137 122 122
213 295 247 148 129 269 337 307 208 243 221 245 287 217 151 131 89 132 88 89 88 155 209 269 330 374 357 300 323 329 366 347 321 290 265 232 215 227 201 177 153 142 128 115
-52 -82 208 298 211 230 250 272 362 282 308 195 225 178 109 157 170 149 153 140 168 260 300 309 294 265 264 297 320 346 372 370 332 309 283 255 241 232 216 183 163 137 134 125
22 6 -164 -82 40 137 65 6 148 106 204 284 146 190 57 101 99 158 193 162 95 159 297 283 221 230 292 302 344 351 384 384 352 326 292 269 256 236 226 194 156 135 136 136
73 130 64 -20 -13 -28 -157 -118 -156 -70 14 47 283 267 76 -25 -25 25 87 163 157 152 196 200 211 272 340 341 374 373 393 373 351 323 301 293 273 265 222 176 150 136 132 134
137 148 135 63 25 -48 -97 -63 -141 -100 -63 -12 -145 142 201 125 313 139 124 142 188 212 236 314 364 371 343 336 396 380 406 377 347 334 330 300 293 255 207 168 155 143 151 167
147 121 135 124 94 75 4 -35 33 23 -4 162 219 21 7 73 211 321 136 86 135 299 246 252 301 297 271 374 380 379 394 367 358 345 321 311 288 244 202 188 165 173 177 153
78 115 147 140 127 95 75 36 70 60 33 1 2 63 156 170 125 104 140 319 149 -3 271 294 281 333 441 437 386 407 361 357 360 334 310 306 280 245 226 190 178 173 170 154
60 50 70 123 112 78 67 63 -55 -74 -11 78 -33 -15 -229 -87 127 106 666 547 404 171 78 259 360 498 420 368 394 393 350 339 317 310 317 291 276 258 210 181 168 159 159 161
18 31 72 83 93 71 111 153 27 55 60 -36 -113 -168 -106 -251 -26 280 532 669 517 125 138 333 377 339 330 393 379 330 325 289 293 335 322 301 255 210 182 169 165 151 147 152
129 61 7 -43 39 10 35 -0 -58 -69 -41 -52 -74 -129 -159 -62 -31 74 302 654 412 120 318 313 395 351 316 311 309 305 276 297 333 334 298 243 208 196 179 153 136 142 147 150
180 250 143 148 132 46 45 -16 -33 -21 -37 -31 -41 -12 -133 -85 -72 -11 156 682 264 210 326 293 291 298 258 247 243 256 237 305 303 287 231 204 190 161 151 144 125 137 137 160
246 152 191 120 84 105 103 69 30 -39 -41 -53 -53 -7 -42 -55 -35 -50 16 330 341 31 152 191 227 212 189 191 178 202 210 225 247 228 194 176 166 144 135 126 128 129 135 166
243 243 205 116 122 96 48 21 7 -5 21 18 10 -3 5 -31 -59 -124 -55 144 321 98 97 124 148 148 113 97 118 149 168 204 200 177 162 151 135 130 126 117 118 133 132 154
355 200 193 189 117 123 26 48 71 53 73 98 90 51 -2 -38 -51 -48 -15 134 223 235 76 115 135 127 75 66 121 143 152 147 174 165 142 133 132 127 125 122 114 120 111 129

GFSCGP_con_3kmhel_009.txt.gz
Helicity
157 186 151 237 247 258 162 162 144 121 101 159 158 140 94 146 256 165 176 179 204 212 243 275 287 320 361 365 386 396 393 359 403 428 411 355 291 234 188 156 138 137 133 125
191 133 95 90 142 185 218 183 157 117 102 153 106 120 167 128 252 252 215 205 249 221 197 279 269 360 385 404 394 435 398 409 406 403 396 338 282 226 195 163 145 140 136 134
187 118 116 98 131 184 148 176 173 153 101 111 152 30 173 199 173 223 227 223 236 305 300 297 339 372 444 468 484 499 487 464 419 390 432 406 372 292 238 181 165 156 139 137
130 85 81 152 179 178 163 149 118 126 149 148 101 20 110 151 146 229 205 193 218 282 295 265 336 380 443 488 514 538 517 491 425 421 429 425 318 266 177 178 187 179 158 151
120 103 91 110 131 185 231 144 126 162 218 228 217 261 92 133 134 117 136 169 149 150 236 279 364 409 485 523 584 572 541 485 440 423 404 352 287 206 202 211 204 186 168 157
124 192 183 167 139 120 161 174 225 239 288 291 287 266 15 128 169 182 136 101 105 110 189 259 268 321 347 421 501 582 565 481 459 430 373 320 253 224 244 225 201 176 171 164
135 153 184 206 173 182 211 288 283 329 454 383 213 231 353 239 153 93 79 66 63 99 150 197 267 319 320 373 475 582 547 490 440 395 344 287 240 226 208 212 199 196 180 161
184 52 110 136 178 216 302 339 412 386 343 221 236 365 348 154 93 105 143 152 49 -1 48 166 200 222 278 351 442 468 500 449 415 375 314 275 236 232 208 205 199 175 161 148
320 321 269 204 207 224 224 372 208 307 239 299 292 264 204 203 204 152 129 108 20 -10 81 118 191 217 238 335 396 408 409 416 398 360 325 275 245 235 197 183 189 168 148 144
315 207 202 257 181 209 252 197 298 388 381 311 341 349 287 252 196 87 80 79 67 57 21 150 225 282 285 300 299 287 347 434 401 372 338 284 247 213 181 213 178 159 146 143
219 313 325 258 290 234 216 230 202 213 283 301 292 251 128 80 69 78 119 122 77 88 73 78 150 264 297 265 286 291 329 369 358 376 343 289 249 210 201 199 173 166 169 148
271 284 300 220 163 187 224 262 299 348 343 334 323 269 243 98 69 86 87 42 10 -8 -8 134 218 289 287 290 298 315 304 338 389 391 353 288 255 227 221 183 173 186 158 160
161 317 439 321 171 242 354 409 457 440 301 296 401 373 240 309 378 339 230 96 20 39 15 -11 98 254 292 278 293 303 288 307 387 398 369 316 273 255 216 176 191 193 175 160
161 316 284 376 304 162 164 -19 -19 -16 153 200 223 267 290 284 221 111 198 189 124 -27 -76 -24 63 202 308 308 331 345 277 316 417 400 382 315 285 249 201 189 215 208 181 165
181 249 175 168 142 113 102 20 -60 -164 -145 -86 117 116 232 247 58 -158 20 67 69 123 40 -42 76 164 255 359 333 317 305 384 423 380 382 335 286 247 224 234 223 199 186 161
175 190 120 156 124 92 66 40 44 50 54 57 -15 -48 43 14 -26 -45 -76 0 20 45 -56 8 119 198 259 377 326 312 345 393 433 384 381 350 304 270 246 234 220 207 184 178
155 201 178 125 88 84 96 117 84 49 45 29 56 47 139 70 110 2 -31 12 16 33 -27 29 78 118 285 345 340 384 431 464 386 378 395 362 304 278 250 235 237 206 195 190
142 97 143 125 89 124 138 32 38 21 36 37 106 157 44 24 -10 121 -1 -59 18 31 -12 -9 25 50 60 202 366 483 459 428 381 392 403 340 313 281 260 265 227 221 216 185
128 144 92 98 85 70 20 44 29 29 -8 106 255 299 170 69 49 76 6 80 78 59 7 -56 -6 70 20 177 335 456 481 405 387 416 393 334 322 297 277 254 233 232 214 186
81 74 96 78 69 87 75 44 101 37 69 73 -61 -21 116 106 101 190 75 127 169 45 61 -98 95 22 34 179 391 439 409 390 361 385 338 320 318 287 273 243 239 222 201 159
79 96 118 125 133 98 108 44 31 -1 -102 -35 6 -37 -30 47 48 60 35 61 56 -6 -27 74 204 143 95 293 389 367 404 330 344 359 340 327 294 284 249 249 238 195 173 157
174 133 161 119 127 151 79 2 33 20 -8 -6 -25 -38 -67 -63 -57 -39 -10 -6 -22 -43 -9 150 264 169 226 322 369 385 321 360 395 340 322 300 304 273 251 228 192 183 172 151
244 294 215 249 273 249 89 101 83 67 86 28 5 -34 -34 -51 -41 -45 -23 8 -76 -66 176 169 289 355 306 256 284 323 356 361 325 316 316 319 287 250 220 206 176 169 159 149
234 198 285 225 241 230 167 63 36 38 32 30 39 13 21 -2 -1 -5 -18 4 -46 -79 161 195 202 231 207 226 242 291 289 287 277 299 303 273 232 210 191 170 154 147 145 138
134 221 246 244 221 92 55 89 114 37 74 54 78 100 66 34 15 20 -10 -23 -27 -60 19 55 217 147 163 221 263 257 227 233 270 253 225 199 187 168 154 132 130 118 114 131
297 275 273 211 162 82 66 28 53 39 38 25 28 26 57 63 26 25 44 -40 -77 -131 42 116 363 278 237 149 142 208 224 207 194 192 192 190 196 166 123 114 124 101 95 97

GFSCGP_con_3kmhel_015.txt.gz
Helicity
92 102 113 99 138 178 148 130 96 78 111 61 57 3 91 49 84 134 131 107 101 103 126 120 172 229 264 262 292 319 365 352 407 414 401 381 324 308 290 266 231 208 198 177
103 87 108 119 113 112 126 121 98 92 71 49 16 -71 106 166 109 144 144 157 162 157 128 123 176 223 263 328 366 364 398 462 443 465 471 423 373 320 287 265 237 231 216 190
127 113 137 101 109 134 144 148 152 132 95 72 37 -70 15 65 71 65 103 113 88 93 102 99 154 206 247 275 339 433 454 540 551 523 557 544 407 376 328 300 291 270 219 185
79 72 87 88 97 113 116 100 106 117 115 78 175 13 127 117 92 119 -6 19 64 17 112 165 161 209 259 323 359 381 452 541 560 642 608 572 508 459 378 355 321 253 213 201
89 106 115 142 133 178 118 140 148 174 183 157 178 194 101 245 152 37 104 112 70 151 123 47 112 163 226 257 317 373 417 505 556 648 596 588 470 411 373 350 292 258 234 211
119 131 127 164 148 188 199 196 233 284 299 275 239 235 108 99 101 182 129 74 47 -41 -20 -1 -9 69 139 197 251 316 352 451 588 641 643 579 505 477 411 341 324 297 269 238
62 50 112 106 128 171 234 281 223 214 327 267 274 277 416 311 219 181 245 251 155 32 -50 -22 -21 -18 88 215 306 348 332 375 492 591 592 549 503 423 385 363 355 333 297 253
117 147 204 221 238 208 190 276 317 288 290 282 300 481 548 398 308 252 227 295 272 217 119 118 95 2 71 67 187 321 333 337 358 453 491 488 451 446 400 382 360 307 287 219
138 149 191 144 317 343 379 394 386 407 339 421 503 478 392 245 329 346 254 155 -52 -52 -3 46 159 194 253 124 113 222 261 244 321 392 410 399 419 414 412 360 298 296 223 213
204 170 105 292 289 284 324 267 345 417 453 355 469 350 434 373 404 362 376 362 186 22 -52 66 162 197 182 93 134 164 149 194 249 307 326 364 397 383 367 359 314 262 218 228
170 226 274 313 366 300 229 266 331 377 456 441 355 536 453 482 232 236 237 136 -9 -98 -140 -155 -182 -92 -11 2 36 132 184 156 144 153 238 275 322 318 304 320 291 262 246 243
127 182 263 172 61 24 86 259 313 393 478 482 308 424 129 68 83 -45 -174 -172 -203 -192 -259 -218 -234 -282 -22 7 31 35 111 174 161 181 179 208 267 311 313 325 292 265 263 257
179 316 236 146 105 258 458 291 159 145 204 341 264 267 32 -13 -68 -11 44 10 -38 -56 -194 -161 -169 -295 -107 80 41 56 58 122 176 175 171 175 194 226 282 323 299 275 279 254
178 317 218 247 201 236 232 196 154 92 201 120 139 62 76 98 76 13 -20 16 48 74 77 100 13 -113 -221 -5 -9 89 78 79 100 184 179 201 176 197 266 329 308 295 270 274
173 198 120 197 219 186 154 200 77 79 107 110 88 57 100 67 62 35 6 -48 -50 26 41 122 216 55 -107 -87 -11 -6 20 90 62 109 175 167 162 196 245 306 309 293 294 271
174 98 141 168 129 111 213 44 61 52 41 65 68 80 67 73 83 64 41 23 -12 21 57 99 140 254 35 -133 -34 77 75 80 41 59 121 143 155 185 243 297 321 329 315 273
93 132 116 231 97 156 199 77 81 65 74 61 87 43 94 45 9 -4 -0 -14 -7 -6 3 50 107 125 146 -35 -82 15 141 89 33 50 83 137 152 172 242 306 333 360 366 302
36 127 228 312 208 387 143 95 67 56 103 88 64 109 67 22 -0 -41 12 -18 -16 -10 26 6 50 65 70 21 -33 -7 78 170 57 84 100 144 187 169 223 323 344 363 366 326
101 181 310 340 286 161 134 87 84 93 73 76 152 59 13 54 15 -0 6 30 10 29 5 26 38 8 1 5 -22 35 33 61 115 105 138 149 229 212 218 323 374 407 403 373
140 153 235 222 267 281 183 70 69 110 137 183 83 51 37 27 5 60 -2 15 15 30 44 -9 2 16 -26 -28 12 52 -28 -2 64 144 176 197 228 234 224 332 401 409 368 301
202 226 287 180 197 188 142 80 90 119 160 49 97 69 64 62 119 108 24 3 32 48 33 28 -14 -15 -16 -33 4 73 -4 -62 34 103 173 187 188 207 227 350 422 402 375 331
295 287 250 168 225 213 119 112 87 123 75 89 107 90 73 89 98 43 7 23 17 30 16 15 -4 -6 13 -32 -92 18 5 -19 41 78 154 175 181 238 273 355 398 392 395 362
287 252 220 256 318 282 191 100 70 79 82 68 80 88 96 87 61 56 14 14 22 17 29 4 -9 -17 -41 -41 -127 -46 -35 72 15 78 206 189 195 231 263 372 437 456 429 367
288 212 307 266 248 182 125 73 41 79 114 85 107 108 97 98 75 31 23 25 18 -7 -17 -6 -29 -44 -71 -69 -148 -90 37 139 149 170 166 205 276 297 284 360 423 441 388 317
215 146 234 230 185 104 56 96 68 61 78 87 105 97 97 95 92 87 73 35 8 -11 -28 -22 -35 -68 -30 -59 -112 -41 75 166 191 235 261 299 308 302 363 401 384 335 234 200
223 134 224 223 88 99 91 67 60 66 102 105 70 -36 72 98 106 95 76 78 89 -3 -35 -27 -31 -67 -4 -69 -40 140 211 175 222 251 274 328 425 381 429 469 443 285 202 160

GFSCGP_con_3kmhel_021.txt.gz
Helicity
69 34 17 70 108 68 59 39 13 11 21 40 23 16 4 8 20 16 10 13 20 36 41 36 59 41 45 89 64 67 74 147 228 245 302 393 411 366 316 298 254 260 257 230
40 21 140 94 67 67 49 32 16 20 41 41 26 6 -8 -45 -47 17 36 50 60 115 179 307 343 387 368 128 95 67 71 93 158 317 285 359 364 369 332 335 298 288 278 244
36 66 76 68 56 27 28 24 13 35 20 7 3 2 89 55 53 71 312 438 454 337 318 398 321 280 259 309 269 148 80 59 97 204 232 261 258 291 339 349 382 364 308 271
33 130 93 59 37 69 37 125 89 49 43 55 130 76 64 112 86 471 468 400 333 324 282 245 308 291 265 240 199 144 159 63 68 129 243 265 320 379 448 490 499 450 335 288
87 80 95 59 71 130 75 113 75 54 64 75 61 125 82 148 247 393 451 340 289 229 241 206 203 211 158 94 115 87 99 126 51 49 230 339 311 293 325 374 409 383 358 312
38 55 77 114 76 83 73 56 50 0 48 77 -18 44 98 168 280 373 348 244 187 184 185 182 148 83 6 73 52 51 96 161 166 130 114 253 340 292 318 333 362 388 416 386
86 135 177 136 111 80 80 111 73 55 171 81 249 273 127 123 296 413 362 360 399 309 247 236 181 103 -11 -148 74 165 185 216 229 137 120 155 263 287 253 249 246 318 441 453
124 130 130 178 156 129 86 124 138 177 147 188 283 337 240 127 172 282 364 286 254 202 147 137 128 106 62 -13 -52 12 16 93 122 94 88 135 166 258 268 210 253 285 327 392
159 168 219 211 174 122 228 155 373 223 135 131 148 101 40 80 268 274 304 262 204 100 55 80 59 -36 -63 -116 -124 -150 -116 -63 8 66 21 49 139 157 199 167 200 291 222 268
211 128 93 238 142 49 126 278 235 221 285 240 267 308 337 467 495 284 143 81 79 82 75 70 64 37 84 64 41 9 4 6 -48 5 20 -6 45 113 143 150 144 284 247 208
135 118 142 140 102 155 159 168 275 259 310 299 189 265 333 369 267 240 92 39 25 104 77 36 33 41 31 40 38 44 27 75 14 -27 17 4 -12 70 99 128 159 237 211 199
192 158 166 79 78 144 162 164 402 395 218 334 338 399 111 237 98 23 37 29 63 107 61 37 29 23 21 41 19 3 -36 -6 39 28 16 21 -17 14 83 126 147 172 195 182
219 168 149 122 122 147 133 143 201 232 232 294 290 360 91 31 39 39 40 55 82 74 58 27 31 24 36 34 10 7 -32 -72 8 33 26 35 9 -22 40 92 110 99 156 136
166 163 130 198 206 178 170 189 218 162 293 100 201 118 68 44 41 42 69 55 52 57 63 33 34 9 34 25 34 11 9 -21 -60 22 19 -28 11 -18 -12 70 95 91 115 134
162 192 133 162 149 139 148 169 84 2 25 124 110 39 41 41 53 97 49 54 63 45 47 42 35 15 5 16 11 32 34 2 -6 -38 87 -23 14 -9 -38 26 82 83 100 121
161 140 155 153 60 42 46 12 -93 -20 -2 91 79 114 43 62 68 57 65 50 30 36 42 66 15 9 10 7 11 28 7 16 15 -11 -13 5 -36 26 -23 -15 53 102 106 118
83 138 154 171 79 91 51 65 43 176 142 94 81 69 64 63 62 49 57 38 24 20 63 59 42 14 1 -9 -1 13 0 22 35 -1 1 26 -15 25 3 -38 30 99 109 123
53 35 106 136 42 138 280 161 46 97 136 76 59 98 60 120 88 34 40 22 64 55 60 63 57 34 35 -11 -13 3 7 -22 -14 5 18 14 44 -27 18 -13 -13 67 117 127
57 14 106 167 95 136 176 109 163 130 184 45 67 215 128 64 108 61 35 57 66 51 68 71 46 19 -8 21 -6 -2 -13 -59 -22 -17 9 40 54 -12 26 -10 10 33 111 137
99 82 99 62 194 233 257 43 63 135 230 159 114 54 75 108 99 108 34 30 38 38 57 71 79 57 14 3 2 -10 -17 -71 -34 -21 -9 53 104 -10 36 8 -1 7 111 143
119 165 171 185 222 258 105 108 175 264 189 97 46 52 68 113 155 62 34 44 36 45 18 47 86 103 74 -3 -6 -33 -42 -44 -18 -39 -37 47 99 30 14 41 50 37 124 139
158 165 176 200 255 225 84 90 122 105 68 81 89 89 113 107 92 49 48 57 57 28 8 33 91 107 77 36 -24 -40 -47 -3 -32 -44 -19 21 54 46 41 62 89 56 117 145
164 222 277 269 332 147 81 87 85 82 74 107 118 99 107 95 80 71 54 22 9 25 10 55 63 -34 30 64 9 -40 -47 -34 -39 -29 0 -5 9 26 44 125 72 106 122 172
113 77 204 183 148 108 65 55 77 144 125 113 122 102 113 122 126 82 50 31 66 69 30 68 28 27 47 68 18 -16 -50 -26 -43 -16 -26 -39 -6 24 79 117 106 169 158 199
137 95 164 147 105 105 112 100 110 82 76 96 120 123 118 108 110 90 69 84 85 29 57 44 77 59 62 74 5 -26 -55 -44 -34 -4 -48 -27 32 38 89 109 73 168 151 207
91 86 166 241 121 161 173 130 100 101 95 127 100 50 75 92 81 122 103 106 64 57 43 32 12 50 -4 9 -41 -41 -61 -17 0 -13 -16 57 53 84 108 143 133 250 169 214

GFSCGP_con_3kmhel_024.txt.gz
Helicity
79 37 28 103 129 99 63 56 40 28 35 58 71 21 52 65 48 46 60 277 495 424 336 392 311 399 376 388 430 397 388 121 142 299 348 346 396 428 428 373 325 353 386 348
45 47 115 82 64 61 67 43 30 33 58 69 57 46 118 98 138 599 601 559 569 538 416 388 347 358 421 420 456 452 345 277 272 133 344 396 432 454 446 397 310 349 403 392
43 50 90 75 100 56 55 50 62 81 43 39 110 50 207 362 664 746 611 501 540 535 437 296 232 295 349 293 316 363 314 271 262 252 169 335 384 454 461 440 388 392 441 442
34 142 83 70 60 89 83 145 132 85 76 96 126 114 91 321 546 462 395 317 321 348 347 259 218 271 363 320 152 187 239 245 123 155 260 310 326 390 488 505 452 405 420 467
65 121 128 73 98 144 111 97 78 64 86 93 91 164 106 278 393 437 468 440 304 153 139 205 161 107 84 115 46 51 62 19 59 169 137 139 321 291 400 483 460 385 387 434
61 41 86 140 83 81 82 90 50 1 38 102 124 126 81 272 604 610 470 375 299 144 -28 -97 -54 -39 -28 -16 -58 -131 -97 -28 -11 53 106 181 94 268 342 411 487 491 454 393
49 150 269 209 101 102 138 104 55 64 161 109 367 309 248 316 366 515 502 491 420 255 63 -1 -37 -57 -88 -99 -32 -110 -164 -207 -96 13 45 112 170 119 241 321 403 466 454 443
108 150 167 202 151 114 82 106 150 214 214 220 71 294 298 333 580 360 350 255 88 48 -44 -42 -39 -27 5 64 53 39 -18 -74 -42 42 89 14 73 122 108 230 276 389 437 396
157 134 246 209 239 119 222 218 212 208 169 158 179 90 187 359 321 187 176 61 -11 -70 -96 -10 32 -21 33 39 28 54 70 45 14 30 103 49 51 71 68 79 199 285 298 315
210 161 88 212 123 91 107 202 212 249 245 293 325 324 365 290 87 80 40 -87 -61 -52 56 92 17 15 8 53 40 24 38 26 3 -4 25 31 68 111 40 44 146 221 241 250
126 146 163 138 131 205 165 202 209 243 276 374 337 275 398 352 271 200 124 94 78 84 100 82 71 70 31 44 52 44 66 64 43 38 -8 -36 10 50 82 31 105 161 171 192
175 161 169 111 87 199 179 177 206 334 326 495 505 385 214 241 197 105 84 65 88 108 94 110 88 74 44 54 79 24 17 62 41 76 38 -42 -30 15 100 15 10 104 124 121
184 140 127 119 180 95 154 217 231 231 284 312 378 588 360 114 88 52 46 92 120 119 139 64 66 64 99 69 12 50 42 37 19 71 58 58 -29 0 82 34 -8 16 50 100
156 138 131 184 131 134 165 190 224 257 344 243 353 208 169 72 36 66 120 121 117 139 115 66 71 72 95 55 30 43 26 39 19 27 61 99 38 -48 -35 107 -21 33 35 97
115 112 94 102 103 153 150 144 145 161 121 214 122 84 74 114 93 102 108 144 160 108 62 58 49 56 73 65 68 59 32 20 12 15 40 51 69 -2 -43 -15 68 6 22 102
151 100 132 129 43 30 86 87 -23 23 21 63 169 200 91 110 109 95 156 136 145 86 93 71 67 63 49 65 70 54 47 54 11 2 0 48 96 57 -86 -9 51 77 41 94
91 108 112 160 97 105 -16 120 216 194 186 249 255 177 113 161 262 282 215 165 114 126 75 76 49 83 78 51 57 74 27 57 57 6 21 -20 37 33 -30 -59 8 42 62 86
56 81 140 188 53 97 149 182 155 221 205 148 125 163 172 142 124 115 76 103 121 169 114 60 58 64 60 65 90 99 46 30 65 21 11 -15 58 20 -32 -44 -30 -22 -28 104
82 44 94 115 155 159 15 45 178 177 225 171 202 211 119 83 112 121 85 125 131 65 87 98 62 68 79 80 102 92 85 51 37 6 -1 23 13 -43 -74 -30 -53 15 -26 56
78 123 188 225 237 300 238 117 134 252 288 177 218 149 111 70 153 169 80 96 77 60 75 70 66 65 73 71 118 101 87 73 27 -11 10 -6 -22 -55 -53 -26 -32 -16 -18 -53
136 168 244 220 250 319 243 224 187 321 287 124 86 123 118 142 182 142 112 106 97 77 61 38 36 54 16 35 81 92 86 82 65 -10 -20 -12 6 -39 -29 -40 18 -1 2 -45
178 143 268 215 247 197 194 153 184 141 129 127 175 176 166 138 124 131 126 123 114 115 67 47 38 56 17 44 62 77 78 83 66 20 -19 -20 -3 -27 -16 -42 18 50 33 -8
137 201 349 371 466 261 138 131 125 119 227 226 197 125 141 159 133 118 99 77 97 80 71 81 49 55 6 50 60 87 42 54 88 24 -41 -20 -10 1 -40 -34 3 28 28 49
174 187 336 270 339 192 121 92 156 166 172 142 88 117 127 119 94 64 82 43 6 5 38 74 94 37 20 34 63 81 50 38 45 -21 -63 -31 8 20 -70 -31 45 91 42 63
205 191 278 309 176 150 166 160 264 260 193 156 139 118 111 81 86 100 102 109 108 94 88 108 112 110 34 29 13 38 11 22 7 -45 -59 -33 6 -27 -91 -4 122 102 79 114
177 190 243 253 182 222 228 211 209 169 165 142 133 138 157 151 114 94 116 136 127 127 121 112 108 98 98 14 29 -18 8 24 -4 -58 -44 -25 -21 -80 -73 26 76 70 87 116

GFSCGP_con_3kmhel_027.txt.gz
Helicity
22 70 46 51 71 68 52 55 43 56 64 49 38 -2 25 -18 222 456 476 520 662 584 410 353 368 422 488 436 418 536 465 464 446 395 247 133 260 418 481 482 462 468 432 363
71 54 71 53 52 66 76 70 48 48 62 35 53 43 190 323 399 412 559 585 486 417 357 363 344 357 323 366 420 424 487 391 284 338 357 221 193 199 396 533 534 462 402 389
47 52 80 67 68 55 71 97 88 80 36 55 104 102 247 283 352 461 482 394 373 297 239 236 267 260 238 231 251 266 303 301 187 160 176 356 253 294 230 343 496 445 456 440
40 74 114 97 80 96 86 117 76 61 105 83 105 148 254 336 427 504 525 433 330 223 174 125 126 114 68 117 83 71 100 122 153 119 147 187 258 309 249 247 225 397 484 472
51 93 91 76 91 78 75 78 80 81 147 139 176 181 230 509 698 611 512 485 337 171 43 2 -60 -31 -62 -110 -106 -79 -47 -93 -95 -7 65 120 150 192 269 207 225 283 437 518
72 76 96 119 77 80 92 98 77 96 151 125 131 147 341 480 537 584 460 358 248 126 -14 -98 -157 -173 -206 -232 -202 -207 -141 -93 -124 -162 -127 -58 83 61 72 181 289 312 352 479
70 116 189 159 104 125 126 120 95 142 156 116 156 239 402 497 547 496 407 306 180 24 -103 -124 -137 -158 -187 -226 -175 -113 -42 -50 -90 -63 -58 -20 11 -4 41 85 142 235 338 412
65 91 142 117 98 75 76 92 144 181 194 225 56 262 378 486 433 343 193 121 33 -57 -151 -124 -112 -81 -84 -56 -25 23 93 134 114 50 25 40 50 -13 22 45 79 181 215 278
95 74 152 146 104 110 127 162 125 181 175 242 138 341 418 440 364 268 186 19 -126 -154 -180 -130 -78 -65 -94 -63 -55 -21 90 126 106 42 44 16 18 5 5 -76 -15 47 176 162
101 96 101 98 84 166 144 126 171 200 176 206 226 340 446 525 331 252 111 -103 -155 -180 -124 -19 -9 -48 -34 -47 -32 13 36 11 10 51 63 48 21 8 -20 -22 -12 30 178 148
114 125 72 89 165 132 129 170 219 259 315 308 339 283 378 256 159 62 36 -17 65 64 95 74 71 90 77 76 80 79 50 28 55 88 85 74 66 30 2 -13 -18 -14 55 130
95 141 110 85 84 132 163 160 219 329 266 442 504 550 536 342 156 28 115 129 101 96 93 89 89 73 77 86 78 62 20 6 70 84 48 30 39 41 21 16 -3 13 -21 69
113 154 134 92 138 190 251 167 204 245 334 453 501 562 373 78 59 119 119 98 60 91 145 141 123 75 58 115 78 51 56 41 62 66 90 67 48 59 52 42 32 18 7 44
157 159 168 153 152 153 149 164 170 213 364 269 445 236 96 123 122 130 188 180 203 183 194 133 116 72 108 104 41 36 68 56 53 60 119 65 65 78 67 68 54 41 34 6
153 129 159 48 78 100 65 81 74 129 170 272 103 142 106 159 216 212 187 183 162 123 103 99 86 87 158 69 36 37 46 41 73 86 87 66 122 56 54 89 80 76 30 -68
172 132 168 115 86 52 92 49 -37 48 71 135 133 176 213 169 163 113 106 87 90 52 89 112 120 118 87 63 63 48 57 77 74 82 74 21 54 40 14 90 70 97 29 -69
188 174 166 135 128 102 38 32 126 155 218 231 204 191 212 167 127 114 114 133 105 69 146 137 109 116 103 99 66 76 70 87 100 66 89 70 -10 -1 24 36 32 20 -14 24
158 190 173 189 157 151 116 62 111 150 207 197 205 199 221 215 181 200 214 158 133 121 90 118 111 120 135 61 63 56 56 110 86 88 80 47 18 21 10 -55 -54 -68 -34 10
126 192 151 170 239 176 -87 56 158 148 210 197 214 214 184 151 155 208 165 129 146 120 118 109 121 106 102 78 68 57 56 84 55 80 54 85 25 -5 -13 -28 -41 -56 -40 -3
139 186 225 270 275 226 82 152 199 178 206 166 194 144 186 187 199 219 122 86 100 119 124 126 106 91 75 64 53 81 75 39 69 53 89 62 34 53 -15 -22 -31 -30 -22 -0
219 202 229 235 277 249 185 92 154 311 277 134 131 186 205 248 279 193 108 156 139 136 115 105 119 109 58 70 85 111 70 15 47 94 55 55 80 68 -27 -42 -21 -41 -26 -0
217 169 270 308 352 175 226 234 294 202 189 181 207 210 218 200 171 172 171 141 115 100 88 102 127 115 118 103 91 118 59 34 52 53 42 18 72 18 -17 -26 -12 -5 -35 13
215 191 243 329 356 308 271 171 172 184 230 217 199 169 154 160 169 137 140 123 134 130 144 152 152 129 113 120 109 88 93 57 31 9 16 21 2 7 -11 -27 16 -46 1 21
271 226 310 350 363 284 203 105 208 216 199 163 151 157 142 151 173 176 151 143 135 145 152 164 163 154 130 105 87 103 79 77 39 4 3 -12 17 -27 -11 -15 -11 -73 -7 41
361 303 301 311 171 189 181 231 195 182 173 126 163 179 155 144 139 137 145 148 165 176 185 174 185 194 153 108 77 66 95 81 53 12 -9 18 6 -30 -13 -8 -20 -61 12 52
370 274 329 318 206 241 209 209 163 161 151 163 146 117 119 113 125 113 148 174 184 188 194 191 181 187 129 87 80 59 54 54 -32 -15 -6 17 -36 -19 -16 -29 -24 -17 22 3

GFSCGP_con_3kmhel_033.txt.gz
Helicity
61 58 18 27 43 31 25 27 26 62 57 38 41 102 131 145 216 222 239 234 239 265 211 223 226 213 235 249 246 264 280 244 166 180 205 280 281 279 300 299 228 195 169 181
59 22 20 34 43 28 26 33 44 39 61 80 158 205 214 217 198 204 216 221 216 189 194 180 155 157 150 116 98 99 102 93 84 61 42 58 94 115 143 231 244 314 319 219
24 24 49 43 51 44 38 59 51 44 54 94 163 184 214 228 220 201 178 150 145 151 180 161 145 98 66 42 1 -21 -49 -64 -54 -21 -54 -31 -10 47 81 124 155 202 191 208
14 38 49 57 47 47 46 58 64 75 85 99 178 208 251 284 274 239 196 143 97 86 84 81 69 26 -22 -67 -86 -111 -157 -208 -207 -160 -143 -118 -71 -14 -24 24 50 81 149 200
28 57 62 47 56 57 42 60 72 87 106 120 140 270 235 340 323 294 278 252 188 101 62 34 -3 -79 -130 -124 -130 -148 -158 -159 -180 -174 -179 -151 -131 -92 -46 -2 15 45 90 129
47 36 57 60 63 74 37 68 102 125 152 153 126 196 240 294 321 372 344 326 265 169 87 33 -7 -53 -83 -108 -130 -147 -188 -186 -128 -96 -70 -63 -59 -28 -5 13 15 49 53 87
61 78 65 60 58 62 66 83 81 118 158 131 165 229 257 383 381 389 357 284 225 187 105 18 -34 -87 -110 -87 -42 -42 -71 -101 -74 -35 12 31 46 46 49 56 79 64 46 57
46 47 66 57 59 61 63 70 107 113 143 196 153 192 178 226 332 353 331 214 119 80 -19 -102 -126 -93 -64 -9 7 -6 -36 -32 -0 -4 -3 11 14 19 20 16 10 -7 -7 6
62 46 51 60 59 67 79 108 103 145 182 211 125 160 216 303 315 295 263 151 62 -14 -77 -163 -88 -16 39 43 28 17 -0 40 50 48 47 36 40 27 12 25 48 32 2 -14
44 50 52 44 74 111 119 112 117 138 134 144 197 196 155 208 284 259 215 101 10 -45 -93 -71 26 69 72 81 75 70 89 104 83 72 63 75 78 57 48 22 41 21 8 37
54 74 62 86 106 126 127 124 168 174 204 212 234 141 205 239 295 226 180 15 -13 -4 12 52 79 100 108 125 146 153 142 135 121 117 120 106 103 72 76 54 52 55 59 62
68 95 57 68 80 70 104 148 193 218 177 288 337 311 140 240 184 144 70 45 98 74 81 115 130 136 155 138 121 122 124 133 138 141 144 120 100 83 88 80 72 68 89 86
69 78 83 74 103 132 157 187 260 301 296 297 368 275 205 148 159 96 113 95 123 132 135 133 146 165 160 146 156 159 144 161 172 159 174 159 140 145 136 115 97 102 104 96
105 110 92 95 122 166 144 181 267 330 357 338 463 273 133 143 148 116 118 149 161 161 128 120 159 192 218 192 180 185 141 118 150 150 183 177 153 146 138 124 101 95 93 85
108 93 110 75 85 147 141 121 247 287 334 389 283 325 181 190 162 152 186 168 137 107 128 141 149 161 172 201 179 194 167 160 131 143 161 144 127 129 121 99 89 85 79 99
118 118 158 113 157 161 113 108 204 147 212 216 137 125 135 141 195 194 193 149 138 149 143 162 182 174 154 139 170 150 165 155 116 142 161 143 77 79 124 103 96 103 75 88
140 151 156 105 134 98 64 27 111 240 272 217 263 250 211 201 198 214 179 172 155 166 220 190 148 147 162 168 159 152 141 121 128 131 148 132 87 49 80 102 105 95 98 62
222 220 190 156 160 145 67 196 225 214 233 189 183 215 197 192 195 241 185 146 188 230 189 171 187 191 184 174 171 160 163 153 136 141 123 126 99 79 78 108 99 111 83 41
230 259 215 219 185 146 49 121 219 283 243 181 217 213 196 195 197 209 137 220 203 175 203 211 197 184 175 171 151 150 149 145 137 132 134 124 106 96 109 77 87 91 32 18
316 262 302 315 236 174 88 201 317 267 243 186 265 194 181 185 200 193 140 143 146 178 191 179 159 171 172 162 148 140 148 145 138 118 98 101 96 134 60 63 89 29 -16 -23
328 278 282 313 280 181 75 146 274 304 155 251 227 153 153 202 230 189 153 164 161 172 146 124 142 154 150 154 158 188 195 194 153 105 92 76 105 71 67 69 51 -25 -79 -79
228 216 268 312 315 100 147 293 251 254 299 239 185 136 140 161 155 143 144 167 143 138 127 124 152 177 172 159 163 195 213 184 171 143 107 67 84 69 66 32 26 -68 -92 -109
267 223 245 289 231 206 234 283 342 303 230 167 172 129 137 136 122 116 136 130 133 128 143 151 172 178 182 162 156 172 221 132 149 123 126 80 68 41 41 70 -53 -71 -84 -65
182 208 351 328 283 200 241 310 296 234 184 175 146 143 130 125 113 127 141 140 129 119 112 152 152 166 169 182 151 184 211 151 136 141 120 73 67 60 32 -21 -48 -45 -39 -31
239 306 315 293 154 237 252 241 185 202 185 183 169 136 118 127 123 137 150 127 124 110 111 124 143 179 176 157 154 162 172 138 121 107 92 78 64 2 -9 -11 -1 -0 9 -26
455 448 339 248 176 226 197 212 189 189 182 171 129 114 117 122 139 148 142 124 114 92 100 122 109 138 156 167 189 183 133 141 139 118 85 69 68 20 34 28 26 49 22 11

GFSCGP_con_3kmhel_036.txt.gz
Helicity
41 43 11 4 37 48 38 31 24 41 74 85 102 120 116 132 167 164 158 146 137 127 98 106 121 125 126 112 108 101 77 73 81 78 102 128 144 134 130 156 156 170 160 134
53 15 29 53 50 38 23 24 28 42 82 91 108 134 140 158 164 158 145 126 122 107 118 128 122 122 97 81 55 35 -11 -28 -50 -62 -61 -30 16 51 78 110 125 144 170 166
22 43 47 35 45 39 29 45 44 43 81 115 153 122 155 154 163 143 120 113 107 105 100 99 94 69 56 56 21 -21 -64 -91 -106 -110 -121 -113 -97 -21 30 72 96 130 146 170
31 46 50 57 41 40 36 50 59 64 71 68 125 93 153 204 188 145 107 82 50 48 65 61 45 32 5 -28 -52 -60 -82 -104 -123 -116 -101 -102 -113 -125 -132 -57 20 84 139 165
33 61 68 50 42 51 27 50 55 74 107 140 167 188 119 236 200 186 160 164 128 94 68 47 32 15 -22 -22 -9 -19 -48 -87 -95 -97 -90 -78 -64 -35 1 29 47 82 127 160
52 37 52 46 66 63 32 63 97 98 104 114 107 178 171 203 216 276 254 248 194 151 119 63 12 13 -2 9 8 -7 -32 -46 -44 -32 -35 -16 18 46 40 22 53 86 93 108
62 63 68 67 64 69 69 71 44 64 106 119 151 202 160 158 280 309 273 224 174 110 70 14 -58 -39 -11 3 24 44 50 48 34 35 47 54 57 56 60 47 51 56 70 71
46 43 75 75 63 56 58 57 70 89 130 171 190 150 100 212 242 282 258 196 117 60 3 -14 -51 -29 23 66 88 100 105 103 95 107 101 99 95 120 115 83 73 77 76 66
60 44 59 73 50 57 60 88 86 153 179 187 126 125 190 271 233 206 206 192 105 36 9 -34 -38 21 76 101 106 110 119 144 155 167 162 150 139 123 122 104 100 91 80 77
44 50 65 54 68 103 98 98 132 146 85 65 154 163 128 157 121 148 160 150 84 47 33 21 37 76 117 137 146 148 136 148 174 183 204 201 176 164 150 136 111 101 95 99
49 84 81 79 99 104 138 135 173 173 182 158 180 122 228 81 134 183 145 119 54 68 51 78 97 126 125 150 167 162 181 174 179 192 182 187 171 148 154 134 109 117 99 110
72 94 72 81 92 99 113 116 183 205 155 276 298 279 92 92 169 174 125 120 107 55 103 124 126 104 131 145 152 159 177 192 168 160 169 114 159 146 183 157 110 131 122 106
74 92 93 101 119 132 130 144 224 284 289 294 336 236 237 203 105 144 187 144 100 123 122 112 120 121 131 132 150 159 172 202 152 190 149 142 150 151 159 163 126 113 102 81
108 119 116 98 138 155 138 166 235 308 322 329 417 308 219 277 253 211 163 145 133 116 94 108 112 120 140 163 168 167 181 156 183 184 140 183 127 118 133 151 106 106 103 81
141 133 134 109 114 161 149 143 263 321 386 322 197 261 226 248 209 180 182 156 141 130 128 126 116 135 151 153 155 163 176 177 169 172 172 164 119 127 106 141 110 71 97 102
163 165 172 135 193 226 177 59 170 160 173 197 135 110 147 127 179 189 164 151 133 112 114 113 113 128 136 154 167 173 183 191 181 174 168 148 138 116 128 142 94 63 93 97
180 187 202 156 201 179 174 125 177 222 239 212 274 235 236 209 173 163 155 144 127 126 129 120 126 140 157 164 167 168 172 167 163 158 145 139 135 125 129 123 102 97 90 116
253 247 225 190 226 275 145 169 151 157 182 197 192 197 236 184 206 190 161 155 129 128 123 127 144 148 152 148 154 162 170 182 185 172 150 127 124 115 103 98 105 116 119 137
263 278 254 253 281 240 177 173 139 184 190 147 160 184 241 237 211 202 90 155 148 136 141 141 139 139 139 141 141 155 170 174 193 181 188 168 125 103 86 83 89 91 113 100
321 318 351 377 294 258 220 168 191 176 204 84 200 259 253 253 213 153 153 135 138 128 113 119 110 110 120 142 161 182 191 172 181 177 203 164 156 117 95 70 60 65 72 96
317 326 303 361 344 277 114 217 183 248 137 162 248 257 245 239 217 182 136 127 114 105 94 96 110 112 110 106 135 162 199 198 190 176 198 128 180 97 97 68 46 61 76 64
206 232 240 319 385 311 216 215 179 191 273 278 270 184 164 161 150 149 130 116 105 93 93 96 106 118 111 120 141 155 175 196 194 157 178 126 130 123 75 48 76 70 -44 59
283 251 232 349 330 294 168 195 237 309 306 256 212 165 171 153 150 124 114 113 101 91 102 102 113 113 109 128 138 156 178 175 176 145 182 128 85 91 67 51 36 60 16 -24
214 274 316 348 328 255 243 238 292 313 272 210 207 180 161 144 127 121 114 110 94 103 103 103 99 115 107 139 147 137 157 127 125 174 162 127 83 66 62 70 43 8 2 12
264 313 287 314 185 200 170 191 209 210 208 208 197 156 134 130 117 113 107 93 102 105 109 97 99 112 121 132 137 122 138 115 138 133 162 134 109 93 87 62 45 30 58 68
437 456 436 314 164 171 180 178 182 194 188 193 181 159 139 132 106 103 100 106 101 104 107 101 103 90 114 118 135 142 122 117 129 92 135 142 121 120 88 92 89 79 71 50